TimeEDT,TemperatureF,Dew PointF,Humidity,Sea Level PressureIn,VisibilityMPH,Wind Direction,Wind SpeedMPH,Gust SpeedMPH,PrecipitationIn,Events,Conditions,WindDirDegrees,DateUTC
12:03 AM,46.4,41.0,81,29.73,10.0,North,12.7,-,N/A,,Overcast,350,2013-05-17 04:03:00
12:38 AM,44.6,39.2,81,29.74,10.0,North,5.8,-,N/A,,Overcast,360,2013-05-17 04:38:00
12:53 AM,44.1,39.0,82,29.75,10.0,North,8.1,-,N/A,,Overcast,360,2013-05-17 04:53:00
1:53 AM,42.1,37.0,82,29.76,10.0,NNW,13.8,19.6,N/A,,Overcast,330,2013-05-17 05:53:00
2:27 AM,42.8,35.6,76,29.76,10.0,North,11.5,18.4,N/A,,Overcast,350,2013-05-17 06:27:00
2:53 AM,42.1,37.0,82,29.78,10.0,NNW,8.1,-,N/A,,Overcast,330,2013-05-17 06:53:00
3:53 AM,42.1,37.0,82,29.79,10.0,NNW,9.2,16.1,N/A,,Overcast,340,2013-05-17 07:53:00
4:53 AM,43.0,37.0,80,29.82,10.0,NNW,9.2,-,N/A,,Overcast,340,2013-05-17 08:53:00
5:53 AM,42.1,36.0,79,29.85,10.0,NNW,13.8,19.6,N/A,,Overcast,330,2013-05-17 09:53:00
6:53 AM,43.0,37.0,80,29.87,10.0,NNW,6.9,-,N/A,,Overcast,340,2013-05-17 10:53:00
7:53 AM,44.1,37.0,76,29.89,10.0,NNW,11.5,-,N/A,,Overcast,340,2013-05-17 11:53:00
8:53 AM,43.0,37.9,82,29.92,10.0,NNW,12.7,21.9,N/A,,Overcast,340,2013-05-17 12:53:00
9:09 AM,44.6,37.4,76,29.91,10.0,North,10.4,21.9,N/A,,Overcast,350,2013-05-17 13:09:00
9:53 AM,45.0,37.0,74,29.95,10.0,North,11.5,23.0,N/A,,Overcast,350,2013-05-17 13:53:00
10:53 AM,46.9,37.0,68,29.97,10.0,North,13.8,20.7,N/A,,Overcast,10,2013-05-17 14:53:00
11:35 AM,48.2,37.4,66,29.97,10.0,North,6.9,-,N/A,,Overcast,350,2013-05-17 15:35:00
11:53 AM,48.9,37.0,64,29.98,10.0,North,10.4,19.6,N/A,,Overcast,10,2013-05-17 15:53:00
12:53 PM,51.1,37.0,59,29.98,10.0,North,12.7,-,N/A,,Overcast,350,2013-05-17 16:53:00
1:53 PM,52.0,37.0,57,29.99,10.0,North,17.3,21.9,N/A,,Mostly Cloudy,360,2013-05-17 17:53:00
2:53 PM,48.2,42.8,82,30.00,7.0,North,12.7,-,N/A,Rain,Light Rain,10,2013-05-17 18:53:00
3:53 PM,52.0,43.0,71,30.02,9.0,NNE,17.3,-,0.01,Rain,Light Rain,30,2013-05-17 19:53:00
4:53 PM,51.1,37.0,59,30.05,10.0,NNW,17.3,28.8,0.00,,Mostly Cloudy,340,2013-05-17 20:53:00
5:53 PM,53.1,37.0,55,30.06,10.0,North,15.0,-,0.00,,Mostly Cloudy,10,2013-05-17 21:53:00
6:53 PM,52.0,37.9,59,30.10,10.0,North,6.9,-,N/A,,Scattered Clouds,10,2013-05-17 22:53:00
7:53 PM,48.0,35.1,61,30.12,10.0,North,6.9,-,N/A,,Clear,350,2013-05-17 23:53:00
8:53 PM,41.0,37.0,86,30.14,10.0,Calm,Calm,-,N/A,,Partly Cloudy,0,2013-05-18 00:53:00
9:53 PM,37.0,35.1,93,30.17,10.0,Calm,Calm,-,N/A,,Scattered Clouds,0,2013-05-18 01:53:00
10:53 PM,39.0,36.0,89,30.18,10.0,Calm,Calm,-,N/A,,Overcast,0,2013-05-18 02:53:00
11:53 PM,36.0,35.1,97,30.19,10.0,Calm,Calm,-,N/A,,Overcast,0,2013-05-18 03:53:00